Flag for U.S.A. Weather past 2 weeks in Osage City, Kansas, U.S.A.

32 °F


Feels Like: 24 °F
Forecast: 27 / 41 °F
Wind: 9 mph from Southwest

Location: Forbes Field

Current Time: Dec 1, 2015 at 1:55:26 AM

Latest Report: Dec 1, 2015 at 12:53 AM

Visibility: 10 mi

Pressure: 29.93 "Hg

Humidity: 88%

Dew point: 29 °F

Location of Osage CityLocation

Historic Weather in Osage City — Graph


Osage City temperature yesterday

Maximum temperature yesterday: 39 °F (at 10:53 AM)
Minimum temperature yesterday: 33 °F (at 9:53 PM)
Average temperature yesterday: 36 °F

Past Weeks' High & Low Weather Summary

High65 °F (Nov 23, 1:53 PM)97% (Nov 30, 1:53 AM)30.47 "Hg (Nov 30, 1:53 AM)
Low26 °F (Nov 21, 8:53 PM)21% (Nov 19, 2:53 PM)29.32 "Hg (Nov 18, 2:53 AM)
Average44 °F73%30.03 "Hg
* Reported Nov 15 11:53 PM — Nov 30 11:53 PM, Osage City, Weather by CustomWeather, © 2015

Note: Actual official high and low records may vary slightly from our data, if they occured in-between our weather recording intervals... More about our weather records


Osage City weather history for previous 24 hours

Time TempWeatherWind HumidityBarometerVisibility
11:53 PM
Mon, Nov 30
33 °FClear.12 mph85%29.94 "Hg10 mi
10:53 PM33 °FChilly.12 mph88%29.95 "HgN/A
9:53 PM33 °FClear.9 mph88%29.95 "Hg10 mi
8:53 PM34 °FClear.10 mph85%29.96 "Hg10 mi
7:53 PM34 °FClear.9 mph85%29.96 "Hg10 mi
6:53 PM35 °FPassing clouds.8 mph85%29.96 "Hg10 mi
5:53 PM37 °FOvercast.8 mph82%29.95 "Hg10 mi
4:53 PM37 °FBroken clouds.10 mph82%29.94 "Hg10 mi
3:53 PM38 °FCloudy.14 mph86%29.93 "Hg10 mi
2:53 PM38 °FMostly cloudy.14 mph86%29.92 "Hg10 mi
1:53 PM39 °FMostly cloudy.9 mph89%29.92 "Hg8 mi
12:53 PM39 °FLow clouds.10 mph89%29.94 "Hg10 mi
12:00 PM39 °FFog.8 mph93%29.95 "Hg2 mi
10:53 AM39 °FFog.No wind89%29.98 "Hg2 mi
9:53 AM38 °FLight rain. Fog.No wind93%30.00 "Hg2 mi
8:53 AM37 °FLight rain. Fog.3 mph93%30.02 "Hg4 mi
7:53 AM37 °FRain. Fog.3 mph93%30.04 "Hg4 mi
7:02 AM37 °FLight rain. Mostly cloudy.6 mph89%29.99 "Hg8 mi
5:56 AM36 °FRain. Fog.6 mph92%29.99 "Hg2 mi
5:00 AM36 °FLight rain. Fog.3 mph97%30.03 "Hg4 mi
4:04 AM36 °FFog.5 mph92%30.03 "Hg2 mi
3:53 AM36 °FFog.3 mph92%30.06 "Hg2 mi
2:53 AM36 °FFog.5 mph92%30.08 "Hg2 mi
2:03 AM36 °FLight rain. Fog.No wind97%30.09 "Hg4 mi
1:53 AM36 °FLight rain. Fog.No wind97%30.12 "Hg2 mi
Weather by CustomWeather, © 2015

See weather overviewHow to use our weather pages